User: anonymous   Login
Location: Unspecified
(0.0000°N, 0.0000°E)
Time: 19:04:19
(UTC+01:00)
Language:

Centaur AC-64 - Orbit

View from above orbital plane
View from above orbital plane
View from above satellite
View from above satellite

Ground track
Ground track

The orbit data is extracted from the following two-line orbital elements,

1 15874U 85055B   14330.98577341  .00008806  00000-0  32899-2 0  5961
2 15874 023.1902 264.9062 6610946 346.7683 017.1676 03.14259262300805
Epoch (UTC): 26 November 2014 23:39:30
Eccentricity: 0.6610946
inclination: 23.1902°
perigee height: 294 km
apogee height: 26326 km
right ascension of ascending node: 264.9062°
argument of perigee: 346.7683°
revolutions per day: 3.14259262
mean anomaly at epoch: 17.1676°
orbit number at epoch: 30080

The dashed part of the orbit path shows where the satellite is in the earth's shadow,  

DLR